Time,TemperatureF,DewpointF,PressureIn,WindDirection,WindDirectionDegrees,WindSpeedMPH,WindSpeedGustMPH,Humidity,HourlyPrecipIn,Conditions,Clouds,dailyrainin,SolarRadiationWatts/m^2,SoftwareType,DateUTC
2013-05-23 00:00:00,70.1,68.3,29.85,West,266,1.0,3.0,94,0.00,,---,1.42,0.00,VWS V14.01,2013-05-23 04:00:00,
2013-05-23 00:01:00,70.1,68.3,29.85,NNW,327,2.0,2.0,94,0.00,,---,1.42,0.00,VWS V14.01,2013-05-23 04:01:00,
2013-05-23 00:06:00,70.2,68.4,29.85,West,279,0.0,4.0,94,0.00,,---,0.00,0.00,VWS V14.01,2013-05-23 04:06:00,
2013-05-23 00:11:00,70.2,68.4,29.85,WSW,249,3.0,4.0,94,0.00,,---,0.00,0.00,VWS V14.01,2013-05-23 04:11:00,
2013-05-23 00:17:00,70.3,68.5,29.85,ENE,76,2.0,7.0,94,0.00,,---,0.00,0.00,VWS V14.01,2013-05-23 04:17:00,
2013-05-23 00:22:00,70.3,68.2,29.85,WNW,295,1.0,7.0,93,0.00,,---,0.00,0.00,VWS V14.01,2013-05-23 04:22:00,
2013-05-23 00:27:00,70.3,68.2,29.85,WNW,296,0.0,7.0,93,0.00,,---,0.00,0.00,VWS V14.01,2013-05-23 04:27:00,
2013-05-23 00:30:00,70.2,68.1,29.85,WSW,248,0.0,7.0,93,0.00,,---,0.00,0.00,VWS V14.01,2013-05-23 04:30:00,
2013-05-23 00:33:00,70.3,68.2,29.85,WSW,248,0.0,7.0,93,0.00,,---,0.00,0.00,VWS V14.01,2013-05-23 04:33:00,
2013-05-23 00:38:00,70.2,68.1,29.85,WSW,248,0.0,0.0,93,0.00,,---,0.00,0.00,VWS V14.01,2013-05-23 04:38:00,
2013-05-23 00:44:00,70.1,68.0,29.85,SW,231,0.0,2.0,93,0.00,,---,0.00,0.00,VWS V14.01,2013-05-23 04:44:00,
2013-05-23 00:49:00,70.1,68.0,29.85,South,170,0.0,2.0,93,0.00,,---,0.00,0.00,VWS V14.01,2013-05-23 04:49:00,
2013-05-23 00:55:00,70.0,67.9,29.85,West,281,0.0,2.0,93,0.00,,---,0.00,0.00,VWS V14.01,2013-05-23 04:55:00,
2013-05-23 01:00:00,69.9,67.8,29.85,NW,310,0.0,2.0,93,0.00,,---,0.00,0.00,VWS V14.01,2013-05-23 05:00:00,
2013-05-23 01:05:00,69.8,67.7,29.85,NW,310,0.0,0.0,93,0.00,,---,0.00,0.00,VWS V14.01,2013-05-23 05:05:00,
2013-05-23 01:11:00,69.6,67.5,29.85,WSW,253,0.0,0.0,93,0.00,,---,0.00,0.00,VWS V14.01,2013-05-23 05:11:00,
2013-05-23 01:16:00,69.4,67.3,29.85,NW,307,0.0,0.0,93,0.00,,---,0.00,0.00,VWS V14.01,2013-05-23 05:16:00,
2013-05-23 01:21:00,69.3,66.9,29.85,NW,307,0.0,1.0,92,0.00,,---,0.00,0.00,VWS V14.01,2013-05-23 05:21:00,
2013-05-23 01:26:00,69.2,66.8,29.85,NW,307,0.0,1.0,92,0.00,,---,0.00,0.00,VWS V14.01,2013-05-23 05:26:00,
2013-05-23 01:30:00,69.1,66.4,29.84,NW,307,0.0,1.0,91,0.00,,---,0.00,0.00,VWS V14.01,2013-05-23 05:30:00,
2013-05-23 01:31:00,69.1,66.7,29.84,NW,307,0.0,1.0,92,0.00,,---,0.00,0.00,VWS V14.01,2013-05-23 05:31:00,
2013-05-23 01:36:00,69.0,66.3,29.84,NW,307,0.0,0.0,91,0.00,,---,0.00,0.00,VWS V14.01,2013-05-23 05:36:00,
2013-05-23 01:41:00,68.9,66.2,29.84,NW,307,0.0,0.0,91,0.00,,---,0.00,0.00,VWS V14.01,2013-05-23 05:41:00,
2013-05-23 01:46:00,68.7,66.0,29.84,NW,307,0.0,1.0,91,0.00,,---,0.00,0.00,VWS V14.01,2013-05-23 05:46:00,
2013-05-23 01:51:00,68.6,65.9,29.83,NW,307,0.0,1.0,91,0.00,,---,0.00,0.00,VWS V14.01,2013-05-23 05:51:00,
2013-05-23 01:56:00,68.5,65.8,29.83,NW,307,0.0,1.0,91,0.00,,---,0.00,0.00,VWS V14.01,2013-05-23 05:56:00,
2013-05-23 02:00:00,68.3,65.3,29.83,NW,307,0.0,1.0,90,0.00,,---,0.00,0.00,VWS V14.01,2013-05-23 06:00:00,
2013-05-23 02:01:00,68.3,65.3,29.83,NW,307,0.0,1.0,90,0.00,,---,0.00,0.00,VWS V14.01,2013-05-23 06:01:00,
2013-05-23 02:06:00,68.2,65.2,29.83,NW,307,1.0,1.0,90,0.00,,---,0.00,0.00,VWS V14.01,2013-05-23 06:06:00,
2013-05-23 02:11:00,68.1,64.7,29.83,NW,307,0.0,1.0,89,0.00,,---,0.00,0.00,VWS V14.01,2013-05-23 06:11:00,
2013-05-23 02:16:00,68.0,64.3,29.83,NW,307,0.0,1.0,88,0.00,,---,0.00,0.00,VWS V14.01,2013-05-23 06:16:00,
2013-05-23 02:21:00,68.0,64.3,29.83,SW,236,0.0,2.0,88,0.00,,---,0.00,0.00,VWS V14.01,2013-05-23 06:21:00,
2013-05-23 02:26:00,68.0,64.0,29.83,SW,236,0.0,2.0,87,0.00,,---,0.00,0.00,VWS V14.01,2013-05-23 06:26:00,
2013-05-23 02:30:00,67.8,63.8,29.82,SW,236,0.0,2.0,87,0.00,,---,0.00,0.00,VWS V14.01,2013-05-23 06:30:00,
2013-05-23 02:31:00,67.9,63.9,29.82,SW,236,0.0,2.0,87,0.00,,---,0.00,0.00,VWS V14.01,2013-05-23 06:31:00,
2013-05-23 02:36:00,67.7,63.7,29.82,SW,236,0.0,0.0,87,0.00,,---,0.00,0.00,VWS V14.01,2013-05-23 06:36:00,
2013-05-23 02:41:00,67.5,63.5,29.82,SW,236,0.0,0.0,87,0.00,,---,0.00,0.00,VWS V14.01,2013-05-23 06:41:00,
2013-05-23 02:46:00,67.2,63.5,29.81,SW,236,0.0,0.0,88,0.00,,---,0.00,0.00,VWS V14.01,2013-05-23 06:46:00,
2013-05-23 02:51:00,67.1,63.4,29.81,SW,236,0.0,0.0,88,0.00,,---,0.00,0.00,VWS V14.01,2013-05-23 06:51:00,
2013-05-23 02:56:00,66.8,63.5,29.81,SW,236,0.0,0.0,89,0.00,,---,0.00,0.00,VWS V14.01,2013-05-23 06:56:00,
2013-05-23 03:00:00,66.4,63.1,29.81,SW,236,0.0,1.0,89,0.00,,---,0.00,0.00,VWS V14.01,2013-05-23 07:00:00,
2013-05-23 03:01:00,66.6,62.9,29.81,SW,236,0.0,0.0,88,0.00,,---,0.00,0.00,VWS V14.01,2013-05-23 07:01:00,
2013-05-23 03:06:00,66.2,62.9,29.81,SW,236,0.0,0.0,89,0.00,,---,0.00,0.00,VWS V14.01,2013-05-23 07:06:00,
2013-05-23 03:11:00,65.8,62.8,29.81,SW,236,0.0,0.0,90,0.00,,---,0.00,0.00,VWS V14.01,2013-05-23 07:11:00,
2013-05-23 03:16:00,65.3,62.6,29.81,SW,236,0.0,1.0,91,0.00,,---,0.00,0.00,VWS V14.01,2013-05-23 07:16:00,
2013-05-23 03:21:00,65.0,62.3,29.81,NE,44,0.0,3.0,91,0.00,,---,0.00,0.00,VWS V14.01,2013-05-23 07:21:00,
2013-05-23 03:26:00,64.7,62.0,29.81,NE,44,0.0,3.0,91,0.00,,---,0.00,0.00,VWS V14.01,2013-05-23 07:26:00,
2013-05-23 03:30:00,64.2,61.8,29.81,NE,44,0.0,3.0,92,0.00,,---,0.00,0.00,VWS V14.01,2013-05-23 07:30:00,
2013-05-23 03:31:00,64.4,62.0,29.81,NE,44,0.0,3.0,92,0.00,,---,0.00,0.00,VWS V14.01,2013-05-23 07:31:00,
2013-05-23 03:36:00,64.1,61.7,29.81,NE,44,0.0,1.0,92,0.00,,---,0.00,0.00,VWS V14.01,2013-05-23 07:36:00,
2013-05-23 03:41:00,63.8,61.7,29.82,NE,44,0.0,1.0,93,0.00,,---,0.00,0.00,VWS V14.01,2013-05-23 07:41:00,
2013-05-23 03:46:00,63.9,61.8,29.82,NE,44,0.0,1.0,93,0.00,,---,0.00,0.00,VWS V14.01,2013-05-23 07:46:00,
2013-05-23 03:51:00,64.1,62.3,29.82,NE,44,0.0,1.0,94,0.00,,---,0.00,0.00,VWS V14.01,2013-05-23 07:51:00,
2013-05-23 03:56:00,64.5,62.4,29.82,East,94,0.0,2.0,93,0.00,,---,0.00,0.00,VWS V14.01,2013-05-23 07:56:00,
2013-05-23 04:00:00,65.4,63.3,29.83,South,189,0.0,4.0,93,0.00,,---,0.00,0.00,VWS V14.01,2013-05-23 08:00:00,
2013-05-23 04:01:00,65.2,63.1,29.83,South,189,0.0,4.0,93,0.00,,---,0.00,0.00,VWS V14.01,2013-05-23 08:01:00,
2013-05-23 04:06:00,65.5,63.4,29.83,South,189,0.0,0.0,93,0.00,,---,0.00,0.00,VWS V14.01,2013-05-23 08:06:00,
2013-05-23 04:11:00,65.7,63.3,29.83,WNW,283,0.0,4.0,92,0.00,,---,0.00,0.00,VWS V14.01,2013-05-23 08:11:00,
2013-05-23 04:16:00,65.9,63.5,29.83,West,260,4.0,4.0,92,0.00,,---,0.00,0.00,VWS V14.01,2013-05-23 08:16:00,
2013-05-23 04:21:00,66.1,63.7,29.83,NNW,328,0.0,4.0,92,0.00,,---,0.00,0.00,VWS V14.01,2013-05-23 08:21:00,
2013-05-23 04:26:00,66.2,63.8,29.84,NNW,328,0.0,4.0,92,0.00,,---,0.00,0.00,VWS V14.01,2013-05-23 08:26:00,
2013-05-23 04:30:00,66.1,63.7,29.83,NNW,332,0.0,4.0,92,0.00,,---,0.00,0.00,VWS V14.01,2013-05-23 08:30:00,
2013-05-23 04:31:00,66.2,63.8,29.84,NNW,330,0.0,4.0,92,0.00,,---,0.00,0.00,VWS V14.01,2013-05-23 08:31:00,
2013-05-23 04:36:00,66.1,64.0,29.84,NW,323,0.0,2.0,93,0.00,,---,0.00,0.00,VWS V14.01,2013-05-23 08:36:00,
2013-05-23 04:41:00,65.9,63.8,29.83,North,360,2.0,2.0,93,0.00,,---,0.00,0.00,VWS V14.01,2013-05-23 08:41:00,
2013-05-23 04:46:00,65.9,63.8,29.83,West,274,0.0,4.0,93,0.00,,---,0.00,0.00,VWS V14.01,2013-05-23 08:46:00,
2013-05-23 04:51:00,65.9,63.8,29.83,SSW,200,0.0,4.0,93,0.00,,---,0.00,0.00,VWS V14.01,2013-05-23 08:51:00,
2013-05-23 04:56:00,65.9,64.1,29.83,WNW,291,0.0,5.0,94,0.00,,---,0.00,0.00,VWS V14.01,2013-05-23 08:56:00,
2013-05-23 05:00:00,65.9,64.1,29.83,WNW,291,0.0,5.0,94,0.00,,---,0.00,0.00,VWS V14.01,2013-05-23 09:00:00,
2013-05-23 05:01:00,65.9,64.1,29.83,WNW,291,0.0,5.0,94,0.00,,---,0.00,0.00,VWS V14.01,2013-05-23 09:01:00,
2013-05-23 05:06:00,65.9,64.1,29.84,WNW,291,0.0,0.0,94,0.00,,---,0.00,0.00,VWS V14.01,2013-05-23 09:06:00,
2013-05-23 05:11:00,65.9,64.4,29.84,WNW,303,0.0,3.0,95,0.00,,---,0.00,0.00,VWS V14.01,2013-05-23 09:11:00,
2013-05-23 05:16:00,66.0,64.5,29.84,West,281,0.0,3.0,95,0.00,,---,0.00,0.00,VWS V14.01,2013-05-23 09:16:00,
2013-05-23 05:21:00,66.0,64.5,29.84,West,265,0.0,4.0,95,0.00,,---,0.00,0.00,VWS V14.01,2013-05-23 09:21:00,
2013-05-23 05:26:00,66.2,64.7,29.84,North,355,0.0,4.0,95,0.00,,---,0.00,0.00,VWS V14.01,2013-05-23 09:26:00,
2013-05-23 05:30:00,66.4,64.9,29.84,SW,234,0.0,4.0,95,0.00,,---,0.00,0.00,VWS V14.01,2013-05-23 09:30:00,
2013-05-23 05:31:00,66.3,64.8,29.84,SW,234,0.0,4.0,95,0.00,,---,0.00,0.00,VWS V14.01,2013-05-23 09:31:00,
2013-05-23 05:36:00,66.4,64.9,29.84,West,281,0.0,3.0,95,0.00,,---,0.00,0.00,VWS V14.01,2013-05-23 09:36:00,
2013-05-23 05:41:00,66.6,65.1,29.84,West,281,0.0,3.0,95,0.00,,---,0.00,0.00,VWS V14.01,2013-05-23 09:41:00,
2013-05-23 05:46:00,66.7,65.2,29.84,West,281,0.0,3.0,95,0.00,,---,0.00,0.00,VWS V14.01,2013-05-23 09:46:00,
2013-05-23 05:51:00,66.8,65.3,29.84,West,276,0.0,3.0,95,0.00,,---,0.00,9.00,VWS V14.01,2013-05-23 09:51:00,
2013-05-23 05:56:00,66.9,65.7,29.84,West,276,0.0,3.0,96,0.00,,---,0.00,16.00,VWS V14.01,2013-05-23 09:56:00,
2013-05-23 06:00:00,67.1,65.9,29.85,NNW,346,1.0,5.0,96,0.00,,---,0.00,11.00,VWS V14.01,2013-05-23 10:00:00,
2013-05-23 06:01:00,67.0,65.8,29.85,East,99,0.0,5.0,96,0.00,,---,0.00,12.00,VWS V14.01,2013-05-23 10:01:00,
2013-05-23 06:06:00,67.1,65.6,29.85,NNW,346,0.0,1.0,95,0.00,,---,0.00,9.00,VWS V14.01,2013-05-23 10:06:00,
2013-05-23 06:11:00,67.2,65.7,29.86,NNW,346,0.0,1.0,95,0.00,,---,0.00,12.00,VWS V14.01,2013-05-23 10:11:00,
2013-05-23 06:16:00,67.3,65.8,29.86,NNW,348,0.0,1.0,95,0.00,,---,0.00,19.00,VWS V14.01,2013-05-23 10:16:00,
2013-05-23 06:21:00,67.4,65.9,29.86,East,85,1.0,5.0,95,0.00,,---,0.00,26.00,VWS V14.01,2013-05-23 10:21:00,
2013-05-23 06:26:00,67.5,66.0,29.86,East,85,0.0,5.0,95,0.00,,---,0.00,30.00,VWS V14.01,2013-05-23 10:26:00,
2013-05-23 06:30:00,67.6,66.1,29.87,West,277,2.0,5.0,95,0.00,,---,0.00,25.00,VWS V14.01,2013-05-23 10:30:00,
2013-05-23 06:31:00,67.6,66.1,29.87,NW,316,0.0,5.0,95,0.00,,---,0.00,18.00,VWS V14.01,2013-05-23 10:31:00,
2013-05-23 06:36:00,67.7,66.2,29.87,West,279,0.0,2.0,95,0.00,,---,0.00,21.00,VWS V14.01,2013-05-23 10:36:00,
2013-05-23 06:41:00,67.8,66.3,29.87,WNW,303,0.0,5.0,95,0.00,,---,0.00,30.00,VWS V14.01,2013-05-23 10:41:00,
2013-05-23 06:46:00,67.9,66.4,29.87,WNW,284,0.0,5.0,95,0.00,,---,0.00,21.00,VWS V14.01,2013-05-23 10:46:00,
2013-05-23 06:51:00,67.9,66.4,29.87,West,266,0.0,5.0,95,0.00,,---,0.00,14.00,VWS V14.01,2013-05-23 10:51:00,
2013-05-23 06:56:00,67.9,66.4,29.88,West,267,0.0,5.0,95,0.00,,---,0.00,23.00,VWS V14.01,2013-05-23 10:56:00,
2013-05-23 07:00:00,67.1,65.9,29.85,NNW,346,1.0,5.0,96,0.00,,---,0.00,11.00,VWS V14.01,2013-05-23 11:00:00,
2013-05-23 07:01:00,67.9,66.4,29.87,West,267,0.0,5.0,95,0.00,,---,0.00,35.00,VWS V14.01,2013-05-23 11:01:00,
2013-05-23 07:11:00,67.9,66.4,29.87,West,267,1.0,5.0,95,0.00,,---,0.00,35.00,VWS V14.01,2013-05-23 11:11:00,
2013-05-23 07:16:00,68.3,66.8,29.87,West,267,0.0,5.0,95,0.00,,---,0.00,128.00,VWS V14.01,2013-05-23 11:16:00,
2013-05-23 07:21:00,68.5,67.0,29.88,West,267,0.0,5.0,95,0.00,,---,0.00,104.00,VWS V14.01,2013-05-23 11:21:00,
2013-05-23 07:26:00,68.7,67.2,29.88,WNW,290,6.0,6.0,95,0.00,,---,0.00,90.00,VWS V14.01,2013-05-23 11:26:00,
2013-05-23 07:30:00,68.9,67.1,29.87,WNW,295,3.0,6.0,94,0.00,,---,0.00,69.00,VWS V14.01,2013-05-23 11:30:00,
2013-05-23 07:31:00,68.8,67.0,29.87,WNW,295,0.0,6.0,94,0.00,,---,0.00,63.00,VWS V14.01,2013-05-23 11:31:00,
2013-05-23 07:36:00,68.9,67.1,29.87,WNW,295,0.0,3.0,94,0.00,,---,0.00,67.00,VWS V14.01,2013-05-23 11:36:00,
2013-05-23 07:41:00,69.0,67.2,29.87,WNW,295,0.0,3.0,94,0.00,,---,0.00,63.00,VWS V14.01,2013-05-23 11:41:00,
2013-05-23 07:46:00,69.0,67.2,29.87,WNW,295,2.0,3.0,94,0.00,,---,0.00,72.00,VWS V14.01,2013-05-23 11:46:00,
2013-05-23 07:51:00,69.1,67.3,29.87,WNW,301,2.0,3.0,94,0.00,,---,0.00,93.00,VWS V14.01,2013-05-23 11:51:00,
2013-05-23 07:56:00,69.3,67.5,29.87,East,91,0.0,4.0,94,0.00,,---,0.00,132.00,VWS V14.01,2013-05-23 11:56:00,
2013-05-23 08:00:00,69.5,67.7,29.87,WNW,288,2.0,4.0,94,0.00,,---,0.00,130.00,VWS V14.01,2013-05-23 12:00:00,
2013-05-23 08:01:00,69.4,67.6,29.87,West,279,0.0,4.0,94,0.00,,---,0.00,114.00,VWS V14.01,2013-05-23 12:01:00,
2013-05-23 08:06:00,69.5,67.7,29.87,WNW,291,0.0,2.0,94,0.00,,---,0.00,116.00,VWS V14.01,2013-05-23 12:06:00,
2013-05-23 08:11:00,69.6,67.8,29.87,WNW,291,0.0,2.0,94,0.00,,---,0.00,118.00,VWS V14.01,2013-05-23 12:11:00,
2013-05-23 08:16:00,69.7,67.6,29.87,WNW,298,0.0,4.0,93,0.00,,---,0.00,125.00,VWS V14.01,2013-05-23 12:16:00,
2013-05-23 08:21:00,69.8,67.7,29.87,West,272,0.0,4.0,93,0.00,,---,0.00,197.00,VWS V14.01,2013-05-23 12:21:00,
2013-05-23 08:26:00,70.0,67.9,29.87,WNW,295,0.0,6.0,93,0.00,,---,0.00,155.00,VWS V14.01,2013-05-23 12:26:00,
2013-05-23 08:30:00,70.3,68.2,29.87,West,271,4.0,6.0,93,0.00,,---,0.00,123.00,VWS V14.01,2013-05-23 12:30:00,
2013-05-23 08:31:00,70.2,68.1,29.87,WNW,296,0.0,6.0,93,0.00,,---,0.00,91.00,VWS V14.01,2013-05-23 12:31:00,
2013-05-23 08:36:00,70.3,67.9,29.87,West,271,0.0,4.0,92,0.00,,---,0.00,98.00,VWS V14.01,2013-05-23 12:36:00,
2013-05-23 08:41:00,70.3,67.9,29.87,WNW,298,0.0,4.0,92,0.00,,---,0.00,163.00,VWS V14.01,2013-05-23 12:41:00,
2013-05-23 08:46:00,70.4,68.0,29.87,West,263,0.0,5.0,92,0.00,,---,0.00,174.00,VWS V14.01,2013-05-23 12:46:00,
2013-05-23 08:51:00,70.6,67.8,29.87,WNW,294,2.0,8.0,91,0.00,,---,0.00,234.00,VWS V14.01,2013-05-23 12:51:00,
2013-05-23 08:56:00,70.8,68.1,29.87,WNW,300,0.0,8.0,91,0.00,,---,0.00,323.00,VWS V14.01,2013-05-23 12:56:00,
2013-05-23 09:00:00,71.3,68.5,29.87,WSW,257,0.0,8.0,91,0.00,,---,0.00,188.00,VWS V14.01,2013-05-23 13:00:00,
2013-05-23 09:01:00,71.1,68.0,29.87,WSW,257,0.0,8.0,90,0.00,,---,0.00,165.00,VWS V14.01,2013-05-23 13:01:00,
2013-05-23 09:06:00,71.3,68.2,29.87,WNW,287,3.0,3.0,90,0.00,,---,0.00,214.00,VWS V14.01,2013-05-23 13:06:00,
2013-05-23 09:11:00,71.3,68.2,29.86,SW,234,0.0,3.0,90,0.00,,---,0.00,218.00,VWS V14.01,2013-05-23 13:11:00,
2013-05-23 09:16:00,71.4,68.3,29.87,West,265,0.0,6.0,90,0.00,,---,0.00,216.00,VWS V14.01,2013-05-23 13:16:00,
2013-05-23 09:21:00,71.4,68.3,29.86,NNW,333,9.0,9.0,90,0.00,,---,0.00,213.00,VWS V14.01,2013-05-23 13:21:00,
2013-05-23 09:26:00,71.5,68.4,29.86,NW,317,0.0,9.0,90,0.00,,---,0.00,258.00,VWS V14.01,2013-05-23 13:26:00,
2013-05-23 09:30:00,71.8,68.4,29.87,West,271,3.0,9.0,89,0.00,,---,0.00,192.00,VWS V14.01,2013-05-23 13:30:00,
2013-05-23 09:31:00,71.7,68.6,29.87,West,268,3.0,9.0,90,0.00,,---,0.00,211.00,VWS V14.01,2013-05-23 13:31:00,
2013-05-23 09:36:00,71.8,68.4,29.86,West,271,0.0,3.0,89,0.00,,---,0.00,213.00,VWS V14.01,2013-05-23 13:36:00,
2013-05-23 09:41:00,71.9,68.5,29.86,West,280,0.0,5.0,89,0.00,,---,0.00,281.00,VWS V14.01,2013-05-23 13:41:00,
2013-05-23 09:46:00,72.1,68.7,29.86,West,280,0.0,5.0,89,0.00,,---,0.00,260.00,VWS V14.01,2013-05-23 13:46:00,
2013-05-23 09:51:00,72.3,68.6,29.86,WNW,282,3.0,5.0,88,0.00,,---,0.00,211.00,VWS V14.01,2013-05-23 13:51:00,
2013-05-23 09:56:00,72.3,68.2,29.86,SW,225,3.0,9.0,87,0.00,,---,0.00,288.00,VWS V14.01,2013-05-23 13:56:00,
2013-05-23 10:00:00,72.5,68.1,29.86,West,260,2.0,9.0,86,0.00,,---,0.00,253.00,VWS V14.01,2013-05-23 14:00:00,
2013-05-23 10:01:00,72.4,68.0,29.86,West,267,1.0,9.0,86,0.00,,---,0.00,272.00,VWS V14.01,2013-05-23 14:01:00,
2013-05-23 10:06:00,72.5,67.7,29.86,South,182,0.0,7.0,85,0.00,,---,0.00,243.00,VWS V14.01,2013-05-23 14:06:00,
2013-05-23 10:11:00,72.6,68.2,29.86,NW,315,0.0,7.0,86,0.00,,---,0.00,329.00,VWS V14.01,2013-05-23 14:11:00,
2013-05-23 10:16:00,72.7,67.9,29.86,WNW,292,0.0,7.0,85,0.00,,---,0.00,267.00,VWS V14.01,2013-05-23 14:16:00,
2013-05-23 10:21:00,72.8,68.0,29.86,West,274,3.0,7.0,85,0.00,,---,0.00,258.00,VWS V14.01,2013-05-23 14:21:00,
2013-05-23 10:26:00,72.9,68.1,29.86,West,264,2.0,7.0,85,0.00,,---,0.00,318.00,VWS V14.01,2013-05-23 14:26:00,
2013-05-23 10:30:00,73.1,68.0,29.86,East,96,0.0,7.0,84,0.00,,---,0.00,334.00,VWS V14.01,2013-05-23 14:30:00,
2013-05-23 10:31:00,73.0,68.2,29.86,NE,36,2.0,7.0,85,0.00,,---,0.00,332.00,VWS V14.01,2013-05-23 14:31:00,
2013-05-23 10:36:00,73.1,67.6,29.86,WSW,242,1.0,4.0,83,0.00,,---,0.00,341.00,VWS V14.01,2013-05-23 14:36:00,
2013-05-23 10:41:00,73.1,67.6,29.86,West,261,3.0,5.0,83,0.00,,---,0.00,295.00,VWS V14.01,2013-05-23 14:41:00,
2013-05-23 10:46:00,73.1,68.0,29.86,WNW,291,0.0,5.0,84,0.00,,---,0.00,195.00,VWS V14.01,2013-05-23 14:46:00,
2013-05-23 10:51:00,72.9,67.4,29.86,ESE,103,1.0,5.0,83,0.00,,---,0.00,197.00,VWS V14.01,2013-05-23 14:51:00,
2013-05-23 10:56:00,72.8,67.7,29.86,WNW,292,6.0,7.0,84,0.01,,---,0.01,255.00,VWS V14.01,2013-05-23 14:56:00,
2013-05-23 11:00:00,72.5,67.7,29.86,NW,317,0.0,7.0,85,0.01,,---,0.01,232.00,VWS V14.01,2013-05-23 15:00:00,
2013-05-23 11:01:00,72.6,67.8,29.86,NW,317,0.0,7.0,85,0.01,,---,0.01,272.00,VWS V14.01,2013-05-23 15:01:00,
2013-05-23 11:06:00,72.5,67.7,29.86,West,271,2.0,3.0,85,0.01,,---,0.01,211.00,VWS V14.01,2013-05-23 15:06:00,
2013-05-23 11:11:00,72.4,67.6,29.86,West,261,1.0,5.0,85,0.01,,---,0.01,204.00,VWS V14.01,2013-05-23 15:11:00,
2013-05-23 11:16:00,72.4,68.0,29.86,West,261,0.0,5.0,86,0.01,,---,0.01,139.00,VWS V14.01,2013-05-23 15:16:00,
2013-05-23 11:21:00,72.3,67.9,29.86,SSE,167,0.0,5.0,86,0.01,,---,0.01,127.00,VWS V14.01,2013-05-23 15:21:00,
2013-05-23 11:26:00,72.1,68.0,29.87,West,281,0.0,5.0,87,0.01,,---,0.01,127.00,VWS V14.01,2013-05-23 15:26:00,
2013-05-23 11:30:00,71.8,68.1,29.86,WNW,288,1.0,5.0,88,0.01,,---,0.01,128.00,VWS V14.01,2013-05-23 15:30:00,
2013-05-23 11:31:00,71.9,67.8,29.86,WNW,288,0.0,5.0,87,0.01,,---,0.01,104.00,VWS V14.01,2013-05-23 15:31:00,
2013-05-23 11:36:00,71.7,68.0,29.86,WNW,290,0.0,3.0,88,0.01,,---,0.01,148.00,VWS V14.01,2013-05-23 15:36:00,
2013-05-23 11:41:00,71.7,68.0,29.86,WNW,290,1.0,3.0,88,0.01,,---,0.01,174.00,VWS V14.01,2013-05-23 15:41:00,
2013-05-23 11:46:00,71.6,67.9,29.86,WNW,290,0.0,4.0,88,0.01,,---,0.01,250.00,VWS V14.01,2013-05-23 15:46:00,
2013-05-23 11:51:00,71.7,68.0,29.86,WNW,290,0.0,4.0,88,0.01,,---,0.01,318.00,VWS V14.01,2013-05-23 15:51:00,
2013-05-23 11:56:00,72.0,68.6,29.86,WNW,290,0.0,4.0,89,0.01,,---,0.01,336.00,VWS V14.01,2013-05-23 15:56:00,
2013-05-23 12:00:00,72.2,68.8,29.86,West,272,0.0,7.0,89,0.01,,---,0.01,475.00,VWS V14.01,2013-05-23 16:00:00,
2013-05-23 12:01:00,72.1,68.3,29.86,West,263,0.0,7.0,88,0.01,,---,0.01,146.00,VWS V14.01,2013-05-23 16:01:00,
2013-05-23 12:06:00,72.2,68.8,29.86,ESE,112,0.0,0.0,89,0.00,,---,0.01,527.00,VWS V14.01,2013-05-23 16:06:00,
2013-05-23 12:11:00,72.7,69.3,29.85,WSW,257,0.0,5.0,89,0.00,,---,0.01,635.00,VWS V14.01,2013-05-23 16:11:00,
2013-05-23 12:16:00,73.1,69.0,29.85,SW,232,3.0,5.0,87,0.00,,---,0.01,118.00,VWS V14.01,2013-05-23 16:16:00,
2013-05-23 12:21:00,72.9,68.8,29.85,SW,217,0.0,7.0,87,0.00,,---,0.01,167.00,VWS V14.01,2013-05-23 16:21:00,
2013-05-23 12:26:00,72.7,68.6,29.85,West,277,0.0,7.0,87,0.00,,---,0.01,83.00,VWS V14.01,2013-05-23 16:26:00,
2013-05-23 12:30:00,72.2,68.4,29.85,West,267,4.0,7.0,88,0.00,,---,0.01,192.00,VWS V14.01,2013-05-23 16:30:00,
2013-05-23 12:31:00,72.4,68.7,29.85,WSW,257,0.0,7.0,88,0.00,,---,0.01,206.00,VWS V14.01,2013-05-23 16:31:00,
2013-05-23 12:36:00,72.2,68.4,29.85,West,269,2.0,4.0,88,0.00,,---,0.01,142.00,VWS V14.01,2013-05-23 16:36:00,
2013-05-23 12:41:00,72.2,68.4,29.85,NW,304,0.0,4.0,88,0.00,,---,0.01,91.00,VWS V14.01,2013-05-23 16:41:00,
2013-05-23 12:46:00,72.0,68.3,29.85,WNW,302,2.0,4.0,88,0.00,,---,0.01,72.00,VWS V14.01,2013-05-23 16:46:00,
2013-05-23 12:51:00,71.9,68.5,29.85,WNW,302,0.0,4.0,89,0.00,,---,0.01,105.00,VWS V14.01,2013-05-23 16:51:00,
2013-05-23 12:56:00,71.7,68.3,29.85,West,261,0.0,4.0,89,0.00,,---,0.01,253.00,VWS V14.01,2013-05-23 16:56:00,
2013-05-23 13:00:00,72.1,69.0,29.84,WNW,292,0.0,4.0,90,0.00,,---,0.01,357.00,VWS V14.01,2013-05-23 17:00:00,
2013-05-23 13:01:00,71.8,68.7,29.84,West,277,0.0,4.0,90,0.00,,---,0.01,383.00,VWS V14.01,2013-05-23 17:01:00,
2013-05-23 13:06:00,72.2,69.1,29.84,WNW,292,0.0,0.0,90,0.00,,---,0.01,281.00,VWS V14.01,2013-05-23 17:06:00,
2013-05-23 13:11:00,72.3,68.6,29.83,WNW,301,2.0,5.0,88,0.00,,---,0.01,195.00,VWS V14.01,2013-05-23 17:11:00,
2013-05-23 13:16:00,72.2,68.4,29.83,WNW,301,0.0,5.0,88,0.01,,---,0.02,197.00,VWS V14.01,2013-05-23 17:16:00,
2013-05-23 13:21:00,72.3,68.9,29.83,WNW,301,0.0,5.0,89,0.01,,---,0.02,155.00,VWS V14.01,2013-05-23 17:21:00,
2013-05-23 13:26:00,72.3,68.9,29.84,WNW,301,0.0,5.0,89,0.01,,---,0.02,246.00,VWS V14.01,2013-05-23 17:26:00,
2013-05-23 13:30:00,72.3,69.2,29.84,WNW,301,0.0,5.0,90,0.01,,---,0.02,251.00,VWS V14.01,2013-05-23 17:30:00,
2013-05-23 13:31:00,72.2,69.1,29.83,WNW,301,0.0,5.0,90,0.01,,---,0.02,281.00,VWS V14.01,2013-05-23 17:31:00,
2013-05-23 13:36:00,72.4,69.3,29.84,WNW,301,0.0,1.0,90,0.01,,---,0.02,202.00,VWS V14.01,2013-05-23 17:36:00,
2013-05-23 13:41:00,72.4,69.3,29.84,WNW,301,0.0,1.0,90,0.01,,---,0.02,144.00,VWS V14.01,2013-05-23 17:41:00,
2013-05-23 13:46:00,72.3,69.2,29.84,WNW,301,0.0,1.0,90,0.01,,---,0.02,107.00,VWS V14.01,2013-05-23 17:46:00,
2013-05-23 13:51:00,72.2,69.1,29.84,WNW,301,0.0,1.0,90,0.01,,---,0.02,95.00,VWS V14.01,2013-05-23 17:51:00,
2013-05-23 13:56:00,71.7,68.3,29.84,WNW,301,0.0,3.0,89,0.01,,---,0.02,33.00,VWS V14.01,2013-05-23 17:56:00,
2013-05-23 14:00:00,71.0,68.2,29.84,WNW,289,0.0,5.0,91,0.02,,---,0.03,51.00,VWS V14.01,2013-05-23 18:00:00,
2013-05-23 14:01:00,71.3,68.5,29.84,WNW,289,0.0,5.0,91,0.02,,---,0.03,56.00,VWS V14.01,2013-05-23 18:01:00,
2013-05-23 14:06:00,70.9,68.2,29.84,WNW,289,0.0,0.0,91,0.02,,---,0.03,51.00,VWS V14.01,2013-05-23 18:06:00,
2013-05-23 14:11:00,70.6,68.2,29.84,WNW,289,0.0,0.0,92,0.02,,---,0.03,30.00,VWS V14.01,2013-05-23 18:11:00,
2013-05-23 14:16:00,70.4,68.3,29.84,WNW,289,0.0,0.0,93,0.03,,---,0.04,16.00,VWS V14.01,2013-05-23 18:16:00,
2013-05-23 14:21:00,70.2,68.1,29.85,WNW,289,0.0,0.0,93,0.04,,---,0.05,11.00,VWS V14.01,2013-05-23 18:21:00,
2013-05-23 14:26:00,70.0,68.2,29.85,SE,136,0.0,3.0,94,0.05,,---,0.06,12.00,VWS V14.01,2013-05-23 18:26:00,
2013-05-23 14:30:00,69.4,67.6,29.85,NW,306,1.0,7.0,94,0.09,,---,0.10,33.00,VWS V14.01,2013-05-23 18:30:00,
2013-05-23 14:31:00,69.7,67.9,29.85,ENE,63,0.0,4.0,94,0.08,,---,0.09,23.00,VWS V14.01,2013-05-23 18:31:00,
2013-05-23 14:36:00,69.2,67.4,29.85,SSE,166,0.0,3.0,94,0.09,,---,0.11,35.00,VWS V14.01,2013-05-23 18:36:00,
2013-05-23 14:41:00,68.8,67.0,29.85,NW,325,0.0,3.0,94,0.09,,---,0.11,40.00,VWS V14.01,2013-05-23 18:41:00,
2013-05-23 14:46:00,68.6,66.8,29.84,NW,326,0.0,3.0,94,0.09,,---,0.11,70.00,VWS V14.01,2013-05-23 18:46:00,
2013-05-23 14:51:00,68.3,66.8,29.84,NW,326,0.0,3.0,95,0.10,,---,0.12,134.00,VWS V14.01,2013-05-23 18:51:00,
2013-05-23 14:56:00,68.4,66.9,29.84,NW,326,0.0,3.0,95,0.10,,---,0.12,109.00,VWS V14.01,2013-05-23 18:56:00,
2013-05-23 15:00:00,71.0,68.2,29.84,WNW,289,0.0,5.0,91,0.02,,---,0.03,51.00,VWS V14.01,2013-05-23 19:00:00,
2013-05-23 15:07:00,68.4,66.9,29.84,NNW,327,0.0,3.0,95,0.10,,---,0.12,105.00,VWS V14.01,2013-05-23 19:07:00,
2013-05-23 15:12:00,68.3,66.8,29.83,West,276,0.0,3.0,95,0.11,,---,0.13,120.00,VWS V14.01,2013-05-23 19:12:00,
2013-05-23 15:17:00,68.2,66.7,29.83,West,276,0.0,3.0,95,0.11,,---,0.13,98.00,VWS V14.01,2013-05-23 19:17:00,
2013-05-23 15:22:00,68.1,66.6,29.83,West,276,0.0,3.0,95,0.11,,---,0.13,118.00,VWS V14.01,2013-05-23 19:22:00,
2013-05-23 15:27:00,68.1,66.6,29.83,NW,314,0.0,4.0,95,0.11,,---,0.13,188.00,VWS V14.01,2013-05-23 19:27:00,
2013-05-23 15:30:00,68.0,66.2,29.82,NW,314,0.0,4.0,94,0.11,,---,0.13,239.00,VWS V14.01,2013-05-23 19:30:00,
2013-05-23 15:32:00,68.0,66.2,29.82,NW,314,0.0,4.0,94,0.11,,---,0.13,309.00,VWS V14.01,2013-05-23 19:32:00,
2013-05-23 15:37:00,68.1,66.6,29.82,ENE,71,0.0,3.0,95,0.03,,---,0.13,250.00,VWS V14.01,2013-05-23 19:37:00,
2013-05-23 15:42:00,68.5,67.0,29.81,ENE,72,0.0,3.0,95,0.03,,---,0.13,332.00,VWS V14.01,2013-05-23 19:42:00,
2013-05-23 15:47:00,68.7,66.9,29.81,ENE,72,0.0,3.0,94,0.03,,---,0.13,322.00,VWS V14.01,2013-05-23 19:47:00,
2013-05-23 15:52:00,68.9,67.1,29.81,ENE,72,0.0,3.0,94,0.03,,---,0.13,302.00,VWS V14.01,2013-05-23 19:52:00,
2013-05-23 15:57:00,68.9,66.8,29.81,ENE,69,0.0,3.0,93,0.03,,---,0.13,221.00,VWS V14.01,2013-05-23 19:57:00,
2013-05-23 16:00:00,69.0,66.6,29.81,West,278,1.0,3.0,92,0.03,,---,0.13,299.00,VWS V14.01,2013-05-23 20:00:00,
2013-05-23 16:02:00,69.0,66.9,29.81,ENE,69,0.0,3.0,93,0.03,,---,0.13,278.00,VWS V14.01,2013-05-23 20:02:00,
2013-05-23 16:07:00,69.3,67.2,29.81,West,278,0.0,2.0,93,0.00,,---,0.13,299.00,VWS V14.01,2013-05-23 20:07:00,
2013-05-23 16:12:00,69.8,67.4,29.81,WSW,258,0.0,4.0,92,0.00,,---,0.13,206.00,VWS V14.01,2013-05-23 20:12:00,
2013-05-23 16:17:00,69.8,67.1,29.81,West,267,0.0,4.0,91,0.00,,---,0.13,155.00,VWS V14.01,2013-05-23 20:17:00,
2013-05-23 16:22:00,69.6,66.9,29.81,West,267,0.0,4.0,91,0.00,,---,0.13,132.00,VWS V14.01,2013-05-23 20:22:00,
2013-05-23 16:27:00,69.5,67.1,29.81,West,267,0.0,4.0,92,0.00,,---,0.13,183.00,VWS V14.01,2013-05-23 20:27:00,
2013-05-23 16:30:00,69.7,67.3,29.81,West,267,0.0,4.0,92,0.00,,---,0.13,113.00,VWS V14.01,2013-05-23 20:30:00,
2013-05-23 16:32:00,69.6,67.2,29.81,West,267,0.0,4.0,92,0.00,,---,0.13,141.00,VWS V14.01,2013-05-23 20:32:00,
2013-05-23 16:37:00,69.5,66.8,29.81,West,267,0.0,2.0,91,0.00,,---,0.13,100.00,VWS V14.01,2013-05-23 20:37:00,
2013-05-23 16:42:00,69.5,67.1,29.81,West,267,2.0,3.0,92,0.00,,---,0.13,88.00,VWS V14.01,2013-05-23 20:42:00,
2013-05-23 16:47:00,69.3,66.6,29.81,West,267,0.0,3.0,91,0.00,,---,0.13,93.00,VWS V14.01,2013-05-23 20:47:00,
2013-05-23 16:52:00,69.3,66.6,29.81,West,267,0.0,3.0,91,0.00,,---,0.13,102.00,VWS V14.01,2013-05-23 20:52:00,
2013-05-23 16:57:00,69.2,66.5,29.81,South,172,0.0,3.0,91,0.00,,---,0.13,53.00,VWS V14.01,2013-05-23 20:57:00,
2013-05-23 17:00:00,69.0,66.3,29.81,NW,305,0.0,3.0,91,0.00,,---,0.13,39.00,VWS V14.01,2013-05-23 21:00:00,
2013-05-23 17:02:00,69.0,65.9,29.81,NW,305,0.0,3.0,90,0.00,,---,0.13,39.00,VWS V14.01,2013-05-23 21:02:00,
2013-05-23 17:07:00,68.9,65.8,29.81,NW,305,0.0,0.0,90,0.00,,---,0.13,33.00,VWS V14.01,2013-05-23 21:07:00,
2013-05-23 17:12:00,68.8,65.8,29.82,NW,305,0.0,0.0,90,0.00,,---,0.13,39.00,VWS V14.01,2013-05-23 21:12:00,
2013-05-23 17:17:00,68.6,65.9,29.82,NW,304,0.0,0.0,91,0.00,,---,0.13,53.00,VWS V14.01,2013-05-23 21:17:00,
2013-05-23 17:22:00,68.5,65.8,29.82,NW,305,0.0,0.0,91,0.00,,---,0.13,81.00,VWS V14.01,2013-05-23 21:22:00,
2013-05-23 17:27:00,68.3,65.6,29.82,WNW,297,0.0,4.0,91,0.00,,---,0.13,97.00,VWS V14.01,2013-05-23 21:27:00,
2013-05-23 17:30:00,68.1,65.7,29.82,NW,317,0.0,4.0,92,0.01,,---,0.14,54.00,VWS V14.01,2013-05-23 21:30:00,
2013-05-23 17:32:00,68.1,65.7,29.82,NW,317,1.0,4.0,92,0.01,,---,0.14,74.00,VWS V14.01,2013-05-23 21:32:00,
2013-05-23 17:37:00,68.0,65.6,29.82,NW,317,0.0,0.0,92,0.01,,---,0.14,35.00,VWS V14.01,2013-05-23 21:37:00,
2013-05-23 17:42:00,67.8,65.7,29.82,NW,317,0.0,0.0,93,0.01,,---,0.14,28.00,VWS V14.01,2013-05-23 21:42:00,
2013-05-23 17:47:00,67.7,65.6,29.82,NW,317,0.0,0.0,93,0.01,,---,0.14,23.00,VWS V14.01,2013-05-23 21:47:00,
2013-05-23 17:52:00,67.6,65.8,29.82,NW,317,0.0,0.0,94,0.02,,---,0.15,28.00,VWS V14.01,2013-05-23 21:52:00,
2013-05-23 17:57:00,67.4,65.6,29.82,NW,317,0.0,1.0,94,0.03,,---,0.16,26.00,VWS V14.01,2013-05-23 21:57:00,
2013-05-23 18:00:00,67.3,65.5,29.82,NW,317,0.0,1.0,94,0.03,,---,0.16,26.00,VWS V14.01,2013-05-23 22:00:00,
2013-05-23 18:02:00,67.3,65.5,29.82,NW,317,0.0,1.0,94,0.03,,---,0.16,32.00,VWS V14.01,2013-05-23 22:02:00,
2013-05-23 18:07:00,67.3,65.8,29.81,NW,317,0.0,0.0,95,0.03,,---,0.16,25.00,VWS V14.01,2013-05-23 22:07:00,
2013-05-23 18:12:00,67.1,65.6,29.82,NW,317,0.0,0.0,95,0.03,,---,0.16,26.00,VWS V14.01,2013-05-23 22:12:00,
2013-05-23 18:17:00,67.0,65.5,29.81,NW,317,0.0,0.0,95,0.03,,---,0.16,28.00,VWS V14.01,2013-05-23 22:17:00,
2013-05-23 18:22:00,66.9,65.4,29.81,ENE,69,0.0,4.0,95,0.03,,---,0.16,46.00,VWS V14.01,2013-05-23 22:22:00,
2013-05-23 18:27:00,66.9,65.4,29.81,ENE,69,0.0,4.0,95,0.03,,---,0.16,44.00,VWS V14.01,2013-05-23 22:27:00,
2013-05-23 18:30:00,66.8,65.3,29.81,ENE,69,2.0,4.0,95,0.03,,---,0.16,26.00,VWS V14.01,2013-05-23 22:30:00,
2013-05-23 18:32:00,66.8,65.3,29.81,ENE,69,0.0,4.0,95,0.03,,---,0.16,30.00,VWS V14.01,2013-05-23 22:32:00,
2013-05-23 18:37:00,66.7,65.2,29.81,WNW,290,1.0,3.0,95,0.02,,---,0.16,25.00,VWS V14.01,2013-05-23 22:37:00,
2013-05-23 18:42:00,66.7,64.9,29.81,WNW,291,0.0,3.0,94,0.02,,---,0.16,14.00,VWS V14.01,2013-05-23 22:42:00,
2013-05-23 18:47:00,66.7,64.9,29.80,WNW,291,0.0,3.0,94,0.02,,---,0.16,12.00,VWS V14.01,2013-05-23 22:47:00,
2013-05-23 18:52:00,66.6,64.8,29.80,WNW,291,2.0,3.0,94,0.02,,---,0.16,16.00,VWS V14.01,2013-05-23 22:52:00,
2013-05-23 18:57:00,66.5,64.7,29.81,West,261,0.0,6.0,94,0.02,,---,0.16,11.00,VWS V14.01,2013-05-23 22:57:00,
2013-05-23 19:00:00,66.4,64.3,29.81,WSW,252,3.0,6.0,93,0.02,,---,0.16,5.00,VWS V14.01,2013-05-23 23:00:00,
2013-05-23 19:02:00,66.5,64.7,29.80,South,186,1.0,6.0,94,0.02,,---,0.16,5.00,VWS V14.01,2013-05-23 23:02:00,
2013-05-23 19:07:00,66.3,64.2,29.81,WSW,250,0.0,4.0,93,0.00,,---,0.16,7.00,VWS V14.01,2013-05-23 23:07:00,
2013-05-23 19:12:00,66.3,64.2,29.81,West,281,0.0,4.0,93,0.00,,---,0.16,5.00,VWS V14.01,2013-05-23 23:12:00,
2013-05-23 19:17:00,66.2,64.1,29.81,West,281,0.0,4.0,93,0.00,,---,0.16,5.00,VWS V14.01,2013-05-23 23:17:00,
2013-05-23 19:22:00,66.1,64.0,29.80,West,281,0.0,4.0,93,0.00,,---,0.16,5.00,VWS V14.01,2013-05-23 23:22:00,
2013-05-23 19:27:00,66.0,63.9,29.80,WNW,296,0.0,4.0,93,0.00,,---,0.16,5.00,VWS V14.01,2013-05-23 23:27:00,
2013-05-23 19:30:00,65.9,63.8,29.80,South,184,0.0,5.0,93,0.00,,---,0.16,7.00,VWS V14.01,2013-05-23 23:30:00,
2013-05-23 19:32:00,65.9,63.8,29.80,NW,321,0.0,4.0,93,0.00,,---,0.16,7.00,VWS V14.01,2013-05-23 23:32:00,
2013-05-23 19:37:00,65.9,63.8,29.80,WNW,288,4.0,4.0,93,0.00,,---,0.16,9.00,VWS V14.01,2013-05-23 23:37:00,
2013-05-23 19:42:00,65.9,63.8,29.80,WNW,300,0.0,4.0,93,0.00,,---,0.16,9.00,VWS V14.01,2013-05-23 23:42:00,
2013-05-23 19:47:00,65.8,63.7,29.79,WNW,300,0.0,4.0,93,0.00,,---,0.16,5.00,VWS V14.01,2013-05-23 23:47:00,
2013-05-23 19:52:00,65.7,63.6,29.80,WNW,300,0.0,4.0,93,0.00,,---,0.16,0.00,VWS V14.01,2013-05-23 23:52:00,
2013-05-23 19:57:00,65.6,63.5,29.79,WNW,300,0.0,4.0,93,0.00,,---,0.16,0.00,VWS V14.01,2013-05-23 23:57:00,
2013-05-23 20:00:00,65.5,63.4,29.79,WNW,300,0.0,4.0,93,0.00,,---,0.16,0.00,VWS V14.01,2013-05-24 00:00:00,
2013-05-23 20:02:00,65.6,63.5,29.79,WNW,300,0.0,4.0,93,0.00,,---,0.16,0.00,VWS V14.01,2013-05-24 00:02:00,
2013-05-23 20:07:00,65.5,63.7,29.79,South,170,0.0,2.0,94,0.00,,---,0.16,0.00,VWS V14.01,2013-05-24 00:07:00,
2013-05-23 20:12:00,65.4,63.6,29.79,South,170,0.0,2.0,94,0.00,,---,0.16,0.00,VWS V14.01,2013-05-24 00:12:00,
2013-05-23 20:17:00,65.4,63.6,29.79,South,170,0.0,2.0,94,0.00,,---,0.16,0.00,VWS V14.01,2013-05-24 00:17:00,
2013-05-23 20:22:00,65.3,63.5,29.79,South,170,0.0,2.0,94,0.00,,---,0.16,0.00,VWS V14.01,2013-05-24 00:22:00,
2013-05-23 20:27:00,65.3,63.5,29.79,WNW,301,0.0,2.0,94,0.00,,---,0.16,0.00,VWS V14.01,2013-05-24 00:27:00,
2013-05-23 20:30:00,65.3,63.8,29.80,WNW,301,0.0,2.0,95,0.00,,---,0.16,0.00,VWS V14.01,2013-05-24 00:30:00,
2013-05-23 20:32:00,65.3,63.8,29.80,WNW,301,0.0,2.0,95,0.00,,---,0.16,0.00,VWS V14.01,2013-05-24 00:32:00,
2013-05-23 20:37:00,65.4,63.9,29.79,West,267,4.0,4.0,95,0.00,,---,0.16,0.00,VWS V14.01,2013-05-24 00:37:00,
2013-05-23 20:42:00,65.6,64.1,29.80,NE,44,0.0,4.0,95,0.00,,---,0.16,0.00,VWS V14.01,2013-05-24 00:42:00,
2013-05-23 20:47:00,65.8,64.0,29.80,NE,44,0.0,4.0,94,0.00,,---,0.16,0.00,VWS V14.01,2013-05-24 00:47:00,
2013-05-23 20:52:00,66.0,64.2,29.80,North,5,1.0,6.0,94,0.00,,---,0.16,0.00,VWS V14.01,2013-05-24 00:52:00,
2013-05-23 20:57:00,66.1,64.3,29.80,WNW,298,0.0,6.0,94,0.00,,---,0.16,0.00,VWS V14.01,2013-05-24 00:57:00,
2013-05-23 21:00:00,66.2,64.4,29.80,West,279,0.0,6.0,94,0.00,,---,0.16,0.00,VWS V14.01,2013-05-24 01:00:00,
2013-05-23 21:02:00,66.2,64.4,29.80,NW,325,0.0,6.0,94,0.00,,---,0.16,0.00,VWS V14.01,2013-05-24 01:02:00,
2013-05-23 21:07:00,66.3,64.5,29.80,WNW,284,0.0,4.0,94,0.00,,---,0.16,0.00,VWS V14.01,2013-05-24 01:07:00,
2013-05-23 21:12:00,66.3,64.5,29.79,WNW,287,0.0,4.0,94,0.00,,---,0.16,0.00,VWS V14.01,2013-05-24 01:12:00,
2013-05-23 21:17:00,66.3,64.5,29.79,WNW,287,0.0,4.0,94,0.00,,---,0.16,0.00,VWS V14.01,2013-05-24 01:17:00,
2013-05-23 21:22:00,66.3,64.5,29.79,NW,310,0.0,4.0,94,0.00,,---,0.16,0.00,VWS V14.01,2013-05-24 01:22:00,
2013-05-23 21:27:00,66.3,64.5,29.79,NW,315,0.0,4.0,94,0.00,,---,0.16,0.00,VWS V14.01,2013-05-24 01:27:00,
2013-05-23 21:30:00,66.3,64.5,29.79,NW,315,0.0,4.0,94,0.00,,---,0.16,0.00,VWS V14.01,2013-05-24 01:30:00,
2013-05-23 21:32:00,66.3,64.5,29.79,NW,315,0.0,4.0,94,0.00,,---,0.16,0.00,VWS V14.01,2013-05-24 01:32:00,
2013-05-23 21:37:00,66.3,64.5,29.79,NW,315,0.0,0.0,94,0.00,,---,0.16,0.00,VWS V14.01,2013-05-24 01:37:00,
2013-05-23 21:42:00,66.3,64.5,29.78,NW,315,0.0,3.0,94,0.00,,---,0.16,0.00,VWS V14.01,2013-05-24 01:42:00,
2013-05-23 21:47:00,66.3,64.5,29.78,NW,315,0.0,3.0,94,0.00,,---,0.16,0.00,VWS V14.01,2013-05-24 01:47:00,
2013-05-23 21:52:00,66.2,64.4,29.78,NW,315,0.0,3.0,94,0.00,,---,0.16,0.00,VWS V14.01,2013-05-24 01:52:00,
2013-05-23 21:57:00,66.2,64.7,29.78,NW,315,0.0,3.0,95,0.00,,---,0.16,0.00,VWS V14.01,2013-05-24 01:57:00,
2013-05-23 22:00:00,66.1,64.6,29.78,NW,315,0.0,3.0,95,0.00,,---,0.16,0.00,VWS V14.01,2013-05-24 02:00:00,
2013-05-23 22:02:00,66.1,64.6,29.78,NW,315,0.0,3.0,95,0.00,,---,0.16,0.00,VWS V14.01,2013-05-24 02:02:00,
2013-05-23 22:07:00,66.1,64.6,29.79,WNW,289,3.0,4.0,95,0.01,,---,0.17,0.00,VWS V14.01,2013-05-24 02:07:00,
2013-05-23 22:12:00,66.0,64.5,29.80,SW,230,0.0,7.0,95,0.17,,---,0.33,0.00,VWS V14.01,2013-05-24 02:12:00,
2013-05-23 22:17:00,65.8,64.3,29.78,East,82,0.0,7.0,95,0.31,,---,0.47,0.00,VWS V14.01,2013-05-24 02:17:00,
2013-05-23 22:22:00,65.6,64.1,29.78,West,259,0.0,7.0,95,0.34,,---,0.50,0.00,VWS V14.01,2013-05-24 02:22:00,
2013-05-23 22:27:00,65.4,63.9,29.78,NNE,15,0.0,7.0,95,0.37,,---,0.53,0.00,VWS V14.01,2013-05-24 02:27:00,
2013-05-23 22:30:00,65.3,64.1,29.77,NNE,15,0.0,7.0,96,0.41,,---,0.57,0.00,VWS V14.01,2013-05-24 02:30:00,
2013-05-23 22:32:00,65.3,64.1,29.77,NNE,15,0.0,7.0,96,0.40,,---,0.56,0.00,VWS V14.01,2013-05-24 02:32:00,
2013-05-23 22:37:00,65.3,64.1,29.77,NNE,15,0.0,0.0,96,0.42,,---,0.58,0.00,VWS V14.01,2013-05-24 02:37:00,
2013-05-23 22:42:00,65.2,64.0,29.77,NNE,15,0.0,0.0,96,0.43,,---,0.59,0.00,VWS V14.01,2013-05-24 02:42:00,
2013-05-23 22:47:00,65.2,64.0,29.77,NNE,15,0.0,0.0,96,0.43,,---,0.59,0.00,VWS V14.01,2013-05-24 02:47:00,
2013-05-23 22:52:00,65.2,64.3,29.77,NNE,15,0.0,2.0,97,0.43,,---,0.59,0.00,VWS V14.01,2013-05-24 02:52:00,
2013-05-23 22:57:00,65.2,64.3,29.77,NW,306,4.0,4.0,97,0.43,,---,0.59,0.00,VWS V14.01,2013-05-24 02:57:00,
2013-05-23 23:00:00,66.1,64.6,29.78,NW,315,0.0,3.0,95,0.00,,---,0.16,0.00,VWS V14.01,2013-05-24 03:00:00,
2013-05-23 23:02:00,65.2,64.3,29.77,NW,326,0.0,4.0,97,0.43,,---,0.59,0.00,VWS V14.01,2013-05-24 03:02:00,
2013-05-23 23:13:00,65.2,64.3,29.77,NW,326,0.0,4.0,97,0.43,,---,0.59,0.00,VWS V14.01,2013-05-24 03:13:00,
2013-05-23 23:18:00,65.2,64.3,29.76,NW,326,0.0,4.0,97,0.43,,---,0.59,0.00,VWS V14.01,2013-05-24 03:18:00,
2013-05-23 23:23:00,65.2,64.3,29.76,North,350,0.0,4.0,97,0.43,,---,0.59,0.00,VWS V14.01,2013-05-24 03:23:00,
2013-05-23 23:28:00,65.2,64.3,29.76,North,350,0.0,4.0,97,0.43,,---,0.59,0.00,VWS V14.01,2013-05-24 03:28:00,
2013-05-23 23:30:00,65.2,64.3,29.76,North,350,0.0,4.0,97,0.44,,---,0.60,0.00,VWS V14.01,2013-05-24 03:30:00,
2013-05-23 23:33:00,65.1,64.2,29.76,North,350,2.0,4.0,97,0.43,,---,0.59,0.00,VWS V14.01,2013-05-24 03:33:00,
2013-05-23 23:38:00,65.2,64.3,29.76,West,268,0.0,3.0,97,0.03,,---,0.60,0.00,VWS V14.01,2013-05-24 03:38:00,
2013-05-23 23:43:00,65.1,64.2,29.75,West,271,2.0,3.0,97,0.03,,---,0.60,0.00,VWS V14.01,2013-05-24 03:43:00,
2013-05-23 23:48:00,65.1,64.2,29.75,West,271,0.0,3.0,97,0.03,,---,0.60,0.00,VWS V14.01,2013-05-24 03:48:00,
2013-05-23 23:53:00,65.1,64.2,29.74,West,271,0.0,3.0,97,0.04,,---,0.61,0.00,VWS V14.01,2013-05-24 03:53:00,
2013-05-23 23:58:00,65.0,64.1,29.74,West,271,0.0,3.0,97,0.04,,---,0.61,0.00,VWS V14.01,2013-05-24 03:58:00,